| time (UTC) | temp F | wind direction | speed knots | gust knots | rain 1hr in | rain 24hr in | rain mn in | humidity % | barometer mb |
| 20260505070056 | 59 | 0 | 0.0 | 6.1 | 0.00 | 0.00 | 0.00 | 69 | 1007.4 |
| 20260505064548 | 59 | 0 | 0.0 | 3.5 | 0.00 | 0.00 | 0.00 | 69 | 1007.5 |
| 20260505063045 | 59 | 107 | 0.0 | 1.7 | 0.00 | 0.00 | 0.00 | 69 | 1007.7 |
| 20260505061546 | 59 | 0 | 0.0 | 7.0 | 0.00 | 0.00 | 0.00 | 69 | 1007.7 |
| 20260505060051 | 59 | 0 | 0.0 | 2.6 | 0.00 | 0.00 | 0.00 | 68 | 1007.7 |
| 20260505054551 | 59 | 0 | 0.9 | 4.3 | 0.00 | 0.00 | 0.00 | 68 | 1007.8 |
| 20260505053047 | 60 | 182 | 0.0 | 2.6 | 0.00 | 0.00 | 0.00 | 67 | 1007.9 |
| 20260505051558 | 61 | 183 | 0.0 | 2.6 | 0.00 | 0.00 | 0.00 | 65 | 1008.1 |
| 20260505041545 | 60 | 0 | 0.0 | 5.2 | 0.00 | 0.00 | 0.00 | 67 | 1008.1 |
| 20260505040045 | 60 | 0 | 0.0 | 2.6 | 0.00 | 0.00 | 0.00 | 68 | 1008.2 |
| 20260505034542 | 59 | 0 | 0.0 | 1.7 | 0.00 | 0.00 | 0.00 | 69 | 1008.2 |
| 20260505033043 | 59 | 0 | 0.0 | 0.9 | 0.00 | 0.00 | 0.00 | 70 | 1007.8 |
| 20260505031553 | 59 | 0 | 0.0 | 0.9 | 0.00 | 0.00 | 0.00 | 71 | 1007.9 |
| 20260505030045 | 59 | 0 | 0.0 | 0.9 | 0.00 | 0.00 | 0.00 | 72 | 1007.9 |
| 20260505024552 | 60 | 0 | 0.0 | 1.7 | 0.00 | 0.00 | 0.00 | 73 | 1007.9 |
| 20260505023050 | 60 | 0 | 0.0 | 0.9 | 0.00 | 0.00 | 0.00 | 72 | 1007.9 |
| 20260505021542 | 61 | 0 | 0.0 | 0.9 | 0.00 | 0.00 | 0.00 | 69 | 1007.9 |
| 20260505020041 | 62 | 0 | 0.9 | 4.3 | 0.00 | 0.00 | 0.00 | 67 | 1007.9 |
| 20260505014548 | 63 | 0 | 0.0 | 2.6 | 0.00 | 0.00 | 0.00 | 64 | 1008.1 |
| 20260505013101 | 65 | 190 | 0.0 | 16.5 | 0.00 | 0.00 | 0.00 | 62 | 1007.8 |
| 20260505011544 | 66 | 285 | 0.0 | 7.0 | 0.00 | 0.00 | 0.00 | 51 | 1007.9 |
| 20260505010053 | 66 | 0 | 0.0 | 1.7 | 0.00 | 0.00 | 0.00 | 50 | 1007.4 |
| 20260505004543 | 67 | 0 | 0.0 | 2.6 | 0.00 | 0.00 | 0.00 | 49 | 1007.2 |
| 20260505003047 | 68 | 0 | 0.0 | 2.6 | 0.00 | 0.00 | 0.00 | 49 | 1007.3 |
| 20260505001548 | 68 | 0 | 0.0 | 6.1 | 0.00 | 0.00 | 0.00 | 48 | 1007.1 |
| 20260505000057 | 69 | 215 | 0.0 | 5.2 | 0.00 | 0.00 | 0.00 | 46 | 1007.0 |
| 20260504234547 | 70 | 218 | 1.7 | 6.1 | 0.00 | 0.00 | 0.00 | 45 | 1006.8 |
| 20260504233046 | 70 | 264 | 0.9 | 7.0 | 0.00 | 0.00 | 0.00 | 45 | 1006.7 |
| 20260504231543 | 71 | 211 | 0.9 | 7.8 | 0.00 | 0.00 | 0.00 | 45 | 1006.6 |
| 20260504230051 | 72 | 153 | 1.7 | 10.4 | 0.00 | 0.00 | 0.00 | 44 | 1006.6 |
| 20260504224546 | 72 | 178 | 1.7 | 9.6 | 0.00 | 0.00 | 0.00 | 43 | 1006.4 |
| 20260504223052 | 72 | 169 | 1.7 | 13.0 | 0.00 | 0.00 | 0.00 | 43 | 1006.4 |
| 20260504221543 | 72 | 274 | 2.6 | 12.2 | 0.00 | 0.00 | 0.00 | 43 | 1006.4 |
| 20260504220048 | 73 | 211 | 2.6 | 13.9 | 0.00 | 0.00 | 0.00 | 42 | 1006.3 |
| 20260504214547 | 73 | 207 | 3.5 | 16.5 | 0.00 | 0.00 | 0.00 | 40 | 1006.3 |
| 20260504213051 | 74 | 225 | 1.7 | 10.4 | 0.00 | 0.00 | 0.00 | 39 | 1006.3 |
| 20260504211551 | 74 | 174 | 1.7 | 13.9 | 0.00 | 0.00 | 0.00 | 37 | 1006.2 |
| 20260504210044 | 74 | 0 | 1.7 | 13.0 | 0.00 | 0.00 | 0.00 | 36 | 1006.4 |
| 20260504204544 | 75 | 178 | 3.5 | 14.8 | 0.00 | 0.00 | 0.00 | 33 | 1006.4 |
| 20260504203046 | 75 | 251 | 3.5 | 12.2 | 0.00 | 0.00 | 0.00 | 35 | 1006.6 |
| 20260504201557 | 75 | 269 | 3.5 | 13.9 | 0.00 | 0.00 | 0.00 | 35 | 1006.7 |
| 20260504200048 | 75 | 186 | 3.5 | 13.9 | 0.00 | 0.00 | 0.00 | 34 | 1006.9 |
| 20260504194550 | 74 | 171 | 0.9 | 8.7 | 0.00 | 0.00 | 0.00 | 34 | 1007.3 |
| 20260504193045 | 74 | 213 | 4.3 | 18.2 | 0.00 | 0.00 | 0.00 | 33 | 1007.5 |
| 20260504191554 | 74 | 164 | 3.5 | 10.4 | 0.00 | 0.00 | 0.00 | 35 | 1007.5 |
| 20260504190047 | 73 | 259 | 6.1 | 16.5 | 0.00 | 0.00 | 0.00 | 36 | 1007.9 |
| 20260504184553 | 73 | 263 | 2.6 | 12.2 | 0.00 | 0.00 | 0.00 | 38 | 1007.9 |
| 20260504183045 | 72 | 153 | 2.6 | 15.6 | 0.00 | 0.00 | 0.00 | 38 | 1008.4 |
| 20260504181544 | 72 | 261 | 5.2 | 13.0 | 0.00 | 0.00 | 0.00 | 37 | 1008.5 |
| 20260504180047 | 72 | 208 | 2.6 | 12.2 | 0.00 | 0.00 | 0.00 | 39 | 1008.5 |
| 20260504174545 | 72 | 252 | 3.5 | 10.4 | 0.00 | 0.00 | 0.00 | 39 | 1008.8 |
| 20260504173039 | 71 | 201 | 4.3 | 15.6 | 0.00 | 0.00 | 0.00 | 41 | 1009.1 |
| 20260504171547 | 70 | 108 | 2.6 | 13.9 | 0.00 | 0.00 | 0.00 | 41 | 1009.3 |
| 20260504081545 | 42 | 0 | 0.0 | 0.9 | 0.00 | 0.00 | 0.00 | 67 | 1012.3 |